Alamogordo, NM

3:32 PM MDT on August 18, 2019 (GMT -0600)
Alamogordo-White Sands Regional

Weather History for KALM - May, 2019

Change the Weather History Date:

Saturday, May 18, 2019

  Actual Average Record
Temperature  
Mean Temperature 65 °F -  
Max Temperature 77 °F 86 °F 100 °F (2003)
Min Temperature 53 °F 55 °F 39 °F (1986)
Growing Degree Days 15 (Base 50)    
Moisture  
Dew Point 16 °F    
Average Humidity 16    
Maximum Humidity 31    
Minimum Humidity 7    
Precipitation  
Precipitation 0.00 in - - ()
Sea Level Pressure  
Sea Level Pressure 29.88 in    
Wind  
Wind Speed 6 mph ()    
Max Wind Speed 14 mph    
Max Gust Speed 24 mph    
Visibility 10.0 miles    
Events      
Averages and records for this station are not official NWS values.
T = Trace of Precipitation, MM = Missing Value Source: Averaged Metar Reports

Daily Weather History Graph

Daily Weather History Graph

Search for Another Location

Airport or City:

Astronomy

May. 18, 2019 Rise Set
Actual Time 6:03 AM MDT 7:58 PM MDT
Civil Twilight 5:35 AM MDT 8:25 PM MDT
Nautical Twilight 5:02 AM MDT 8:58 PM MDT
Astronomical Twilight 4:27 AM MDT 9:34 PM MDT
Moon 7:59 PM MDT 6:06 AM MDT
Length of Visible Light 14h 49m
Length of Day
13h 55m
Full, 100% of the Moon is Illuminated
May 18
Full
May 18
Full
May 26
Last Quarter
Jun 3
New
Jun 10
First Quarter

Hourly Weather History & Observations

Time (MDT) Temp. Dew Point Humidity Pressure Visibility Wind Dir Wind Speed Gust Speed Precip Events Conditions
12:15 AM 59.0 °F 19.4 °F 22% 29.85 in 10.0 mi Calm Calm - N/A   Clear
12:35 AM 59.0 °F 19.4 °F 22% 29.85 in 10.0 mi SE 5.8 mph - N/A   Clear
12:55 AM 59.0 °F 19.4 °F 22% 29.85 in 10.0 mi Calm Calm - N/A   Clear
1:15 AM 59.0 °F 19.4 °F 22% 29.85 in 10.0 mi Calm Calm - N/A   Clear
1:35 AM 60.8 °F 19.4 °F 20% 29.85 in 10.0 mi Calm Calm - N/A   Clear
1:55 AM 66.2 °F 17.6 °F 15% 29.85 in 10.0 mi NNE 6.9 mph - N/A   Clear
2:15 AM 57.2 °F 19.4 °F 23% 29.85 in 10.0 mi ENE 3.5 mph - N/A   Clear
2:35 AM 57.2 °F 19.4 °F 23% 29.85 in 10.0 mi Calm Calm - N/A   Clear
2:55 AM 60.8 °F 19.4 °F 20% 29.85 in 10.0 mi SW 5.8 mph - N/A   Clear
3:15 AM 59.0 °F 19.4 °F 22% 29.85 in 10.0 mi SW 8.1 mph - N/A   Clear
3:35 AM 62.6 °F 21.2 °F 20% 29.85 in 10.0 mi SW 6.9 mph 16.1 mph N/A   Clear
3:55 AM 59.0 °F 23.0 °F 25% 29.85 in 10.0 mi Calm Calm - N/A   Clear
4:15 AM 60.8 °F 21.2 °F 22% 29.85 in 10.0 mi WSW 10.4 mph 16.1 mph N/A   Clear
4:35 AM 60.8 °F 21.2 °F 22% 29.85 in 10.0 mi SW 8.1 mph - N/A   Clear
4:55 AM 57.2 °F 26.6 °F 31% 29.86 in 10.0 mi SSW 9.2 mph - N/A   Clear
5:15 AM 55.4 °F 24.8 °F 31% 29.85 in 10.0 mi SSW 10.4 mph - N/A   Clear
5:35 AM 57.2 °F 19.4 °F 23% 29.86 in 10.0 mi West 11.5 mph 16.1 mph N/A   Clear
5:55 AM 57.2 °F 17.6 °F 21% 29.86 in 10.0 mi NNW 4.6 mph - N/A   Clear
6:15 AM 53.6 °F 19.4 °F 26% 29.88 in 10.0 mi NE 4.6 mph - N/A   Clear
6:35 AM 53.6 °F 17.6 °F 24% 29.88 in 10.0 mi NNE 5.8 mph - N/A   Clear
6:55 AM 55.4 °F 19.4 °F 25% 29.89 in 10.0 mi North 5.8 mph - N/A   Clear
7:15 AM 57.2 °F 19.4 °F 23% 29.90 in 10.0 mi North 5.8 mph - N/A   Clear
7:35 AM 60.8 °F 19.4 °F 20% 29.90 in 10.0 mi NNE 8.1 mph - N/A   Clear
7:55 AM 62.6 °F 15.8 °F 16% 29.91 in 10.0 mi North 8.1 mph - N/A   Clear
8:15 AM 62.6 °F 15.8 °F 16% 29.91 in 10.0 mi NNW 13.8 mph 18.4 mph N/A   Clear
8:35 AM 62.6 °F 17.6 °F 18% 29.91 in 10.0 mi North 12.7 mph - N/A   Clear
8:55 AM 64.4 °F 17.6 °F 16% 29.92 in 10.0 mi North 13.8 mph 18.4 mph N/A   Clear
9:15 AM 64.4 °F 17.6 °F 16% 29.92 in 10.0 mi North 12.7 mph 16.1 mph N/A   Clear
9:35 AM 64.4 °F 19.4 °F 18% 29.92 in 10.0 mi North 9.2 mph - N/A   Clear
9:55 AM 64.4 °F 19.4 °F 18% 29.92 in 10.0 mi NNE 10.4 mph 16.1 mph N/A   Clear
10:15 AM 66.2 °F 19.4 °F 17% 29.91 in 10.0 mi NNW 12.7 mph 18.4 mph N/A   Clear
10:35 AM 66.2 °F 19.4 °F 17% 29.92 in 10.0 mi NNW 12.7 mph 16.1 mph N/A   Clear
10:55 AM 66.2 °F 19.4 °F 17% 29.91 in 10.0 mi NW 9.2 mph - N/A   Clear
11:15 AM 66.2 °F 19.4 °F 17% 29.91 in 10.0 mi West 8.1 mph - N/A   Clear
11:35 AM 68.0 °F 19.4 °F 16% 29.91 in 10.0 mi WSW 11.5 mph 17.3 mph N/A   Clear
11:55 AM 68.0 °F 17.6 °F 15% 29.92 in 10.0 mi WNW 9.2 mph 16.1 mph N/A   Clear
12:15 PM 68.0 °F 17.6 °F 15% 29.91 in 10.0 mi WSW 5.8 mph 16.1 mph N/A   Clear
12:35 PM 68.0 °F 15.8 °F 13% 29.91 in 10.0 mi WSW 12.7 mph 19.6 mph N/A   Clear
12:55 PM 71.6 °F 15.8 °F 12% 29.90 in 10.0 mi NW 13.8 mph - N/A   Clear
1:15 PM 69.8 °F 15.8 °F 13% 29.89 in 10.0 mi NW 5.8 mph - N/A   Clear
1:35 PM 71.6 °F 15.8 °F 12% 29.90 in 10.0 mi NW 12.7 mph 24.2 mph N/A   Clear
1:55 PM 71.6 °F 14.0 °F 11% 29.90 in 10.0 mi NW 10.4 mph 24.2 mph N/A   Clear
2:15 PM 73.4 °F 14.0 °F 10% 29.89 in 10.0 mi NNW 6.9 mph 17.3 mph N/A   Clear
2:35 PM 73.4 °F 14.0 °F 10% 29.89 in 10.0 mi NNW 10.4 mph 20.7 mph N/A   Clear
2:55 PM 73.4 °F 12.2 °F 10% 29.89 in 10.0 mi WSW 8.1 mph 23.0 mph N/A   Clear
3:15 PM 73.4 °F 14.0 °F 10% 29.87 in 10.0 mi North - - N/A   Clear
3:35 PM 75.2 °F 14.0 °F 10% 29.87 in 10.0 mi WNW 6.9 mph 18.4 mph N/A   Clear
3:55 PM 75.2 °F 14.0 °F 10% 29.86 in 10.0 mi SSW 6.9 mph - N/A   Clear
4:15 PM 75.2 °F 12.2 °F 9% 29.86 in 10.0 mi NNW 8.1 mph 17.3 mph N/A   Clear
4:35 PM 75.2 °F 10.4 °F 8% 29.85 in 10.0 mi SW 5.8 mph - N/A   Clear
4:55 PM 77.0 °F 10.4 °F 8% 29.85 in 10.0 mi SSW 4.6 mph - N/A   Clear
5:15 PM 77.0 °F 8.6 °F 7% 29.85 in 10.0 mi West 3.5 mph - N/A   Clear
5:35 PM 77.0 °F 10.4 °F 8% 29.84 in 10.0 mi SSW 8.1 mph - N/A   Clear
5:55 PM 77.0 °F 10.4 °F 8% 29.84 in 10.0 mi East 4.6 mph - N/A   Clear
6:15 PM 75.2 °F 10.4 °F 8% 29.83 in 10.0 mi East 3.5 mph - N/A   Clear
6:35 PM 75.2 °F 10.4 °F 8% 29.83 in 10.0 mi WSW 8.1 mph - N/A   Clear
6:55 PM 77.0 °F 8.6 °F 7% 29.83 in 10.0 mi WSW 6.9 mph - N/A   Clear
7:15 PM 75.2 °F 8.6 °F 8% 29.84 in 10.0 mi WSW 8.1 mph - N/A   Clear
7:35 PM 75.2 °F 6.8 °F 7% 29.85 in 10.0 mi SW 13.8 mph 19.6 mph N/A   Clear
7:55 PM 73.4 °F 6.8 °F 8% 29.86 in 10.0 mi SW 12.7 mph 17.3 mph N/A   Clear
8:15 PM 71.6 °F 6.8 °F 8% 29.86 in 10.0 mi SW 8.1 mph - N/A   Clear
8:35 PM 68.0 °F 6.8 °F 9% 29.87 in 10.0 mi SW 8.1 mph - N/A   Clear
8:55 PM 68.0 °F 6.8 °F 9% 29.88 in 10.0 mi WSW 8.1 mph - N/A   Clear
9:15 PM 60.8 °F 12.2 °F 15% 29.89 in 10.0 mi SE 3.5 mph - N/A   Clear
9:35 PM 62.6 °F 8.6 °F 12% 29.91 in 10.0 mi SE 4.6 mph - N/A   Clear
9:55 PM 59.0 °F 14.0 °F 17% 29.92 in 10.0 mi SSE 6.9 mph - N/A   Clear
10:15 PM 59.0 °F 14.0 °F 17% 29.92 in 10.0 mi SE 8.1 mph - N/A   Clear
10:35 PM 59.0 °F 17.6 °F 20% 29.93 in 10.0 mi SSE 8.1 mph - N/A   Clear
10:55 PM 62.6 °F 14.0 °F 15% 29.93 in 10.0 mi SSE 4.6 mph - N/A   Clear
11:15 PM 62.6 °F 14.0 °F 15% 29.93 in 10.0 mi SSW 4.6 mph - N/A   Clear
11:35 PM 66.2 °F 10.4 °F 11% 29.94 in 10.0 mi Calm Calm - N/A   Clear
11:55 PM 59.0 °F 14.0 °F 17% 29.93 in 10.0 mi ESE 3.5 mph - N/A   Clear